Accueil
METAR-TAF:

METAR-TAF

Aéroports :

Reims, France

Aérodrome de Reims - Prunay

latitude: 49-12-31N, longitude: 004-09-24E, altitude: 95 m

Observation

Le bulletin a été fait il y a 26 minutes, à 11:30 UTC
Vent 6 kt de sud, variant entre est/sud-est et sud/sud-ouest
Température 27°C
Humidité 58%
Pression 1014 hPa

METAR: LFQA 231130Z AUTO 17006KT 120V200 //// // NSC 27/18 Q1014

Heure: 13:56 (11:56 UTC)


TAF: absent

Observations et prévisions météorologiques de plus de 4000 aéroports (messages METAR et TAF).

Les stations disponibles sont représentées par des disques jaunes et rouges sur la carte.

Passer la souris dessus pour voir le nom de la station.

Cliquer dessus pour voir les observations et prévisions météorologiques.

Pour changer de carte: cliquez sur les boutons verts avec une croix noire pour zoomer, sur le bouton vert avec un tiret pour effectuer un zoom arrière, ou sur les flèches vertes pour les cartes adjacentes.


METAR-TAF: